TimeMDT,TemperatureF,Dew PointF,Humidity,Sea Level PressureIn,VisibilityMPH,Wind Direction,Wind SpeedMPH,Gust SpeedMPH,PrecipitationIn,Events,Conditions,WindDirDegrees,DateUTC
12:53 AM,44.1,28.9,55,30.02,10.0,Calm,Calm,-,N/A,,Overcast,0,2013-04-20 06:53:00
1:53 AM,43.0,30.9,62,29.99,10.0,Calm,Calm,-,N/A,,Overcast,0,2013-04-20 07:53:00
2:53 AM,39.0,33.1,79,29.97,10.0,SSE,10.4,-,N/A,,Scattered Clouds,150,2013-04-20 08:53:00
3:53 AM,36.0,32.0,86,29.96,10.0,ESE,5.8,-,N/A,,Clear,120,2013-04-20 09:53:00
4:53 AM,36.0,30.9,82,29.96,10.0,SE,3.5,-,N/A,,Mostly Cloudy,130,2013-04-20 10:53:00
5:53 AM,35.1,30.9,85,29.95,10.0,Calm,Calm,-,N/A,,Partly Cloudy,0,2013-04-20 11:53:00
6:53 AM,34.0,30.9,89,29.97,10.0,Calm,Calm,-,N/A,,Mostly Cloudy,0,2013-04-20 12:53:00
7:53 AM,36.0,32.0,86,29.98,10.0,South,3.5,-,N/A,,Overcast,170,2013-04-20 13:53:00
8:53 AM,39.0,34.0,82,29.97,10.0,SW,5.8,-,N/A,,Mostly Cloudy,220,2013-04-20 14:53:00
9:53 AM,43.0,33.1,68,29.96,10.0,NNW,4.6,-,N/A,,Overcast,340,2013-04-20 15:53:00
10:53 AM,46.0,33.1,61,29.96,10.0,North,8.1,-,N/A,,Overcast,10,2013-04-20 16:53:00
11:53 AM,48.0,30.9,52,29.96,10.0,Calm,Calm,-,N/A,,Mostly Cloudy,0,2013-04-20 17:53:00
12:53 PM,50.0,30.9,48,29.94,10.0,Variable,3.5,-,N/A,,Mostly Cloudy,0,2013-04-20 18:53:00
1:53 PM,52.0,32.0,47,29.92,10.0,NNE,8.1,-,N/A,,Partly Cloudy,30,2013-04-20 19:53:00
2:53 PM,53.1,28.0,38,29.92,10.0,North,4.6,-,N/A,,Mostly Cloudy,360,2013-04-20 20:53:00
3:53 PM,52.0,33.1,49,29.94,10.0,NW,18.4,-,N/A,,Scattered Clouds,310,2013-04-20 21:53:00
4:53 PM,53.1,28.9,40,29.93,10.0,West,9.2,-,N/A,,Mostly Cloudy,270,2013-04-20 22:53:00
5:53 PM,53.1,30.9,43,29.94,10.0,NW,9.2,-,N/A,,Mostly Cloudy,310,2013-04-20 23:53:00
6:53 PM,53.1,30.9,43,29.95,10.0,West,9.2,-,N/A,,Mostly Cloudy,270,2013-04-21 00:53:00
7:53 PM,48.0,32.0,54,30.00,10.0,SW,9.2,-,0.00,,Overcast,220,2013-04-21 01:53:00
8:53 PM,45.0,35.1,68,30.03,10.0,South,10.4,-,0.00,,Partly Cloudy,180,2013-04-21 02:53:00
9:53 PM,43.0,36.0,76,30.06,10.0,SSE,13.8,-,N/A,,Scattered Clouds,150,2013-04-21 03:53:00
10:53 PM,42.1,35.1,76,30.06,10.0,SSE,9.2,-,N/A,,Scattered Clouds,150,2013-04-21 04:53:00
11:53 PM,39.9,35.1,83,30.06,10.0,ESE,5.8,-,N/A,,Clear,110,2013-04-21 05:53:00